WZZ309 EPGD-EKBI

Flight info

Callsign WZZ309
Flight time N/A
Altitude 38000
Route DEXIR Y100 MALOX L621 LUSID DCT DETUS DCT MATEK L983 BAVTA P601 EPILO DCT GELBA
Aircraft A20N/M-SDE1E2E3FGIJ1J4RWXY/LB1

Departure

Time 2026-04-30 22:06
Airport Gdańsk Lech Wałęsa Airport (EPGD)

Arrival

Time N/A
Airport Billund Airport (EKBI)
Time Latitude Longitude Altitude Speed Heading
2026-04-30 21:26 54.38193 18.46318 459 ft 0 kts 23°
2026-04-30 21:49 54.38185 18.46312 459 ft 1 kts 23°
2026-04-30 21:49 54.38178 18.46307 459 ft 1 kts 23°
2026-04-30 21:49 54.38171 18.46302 459 ft 1 kts 34°
2026-04-30 21:49 54.38165 18.46293 459 ft 1 kts 69°
2026-04-30 21:50 54.38163 18.46280 459 ft 1 kts 94°
2026-04-30 21:50 54.38163 18.46267 457 ft 1 kts 98°
2026-04-30 21:50 54.38165 18.46253 456 ft 1 kts 104°
2026-04-30 21:50 54.38167 18.46241 457 ft 1 kts 107°
2026-04-30 21:51 54.38168 18.46232 457 ft 0 kts 103°
2026-04-30 21:51 54.38168 18.46234 457 ft 0 kts 102°
2026-04-30 21:55 54.38165 18.46243 457 ft 3 kts 114°
2026-04-30 21:56 54.38144 18.46305 458 ft 8 kts 117°
2026-04-30 21:56 54.38117 18.46420 458 ft 12 kts 113°
2026-04-30 21:56 54.38078 18.46567 457 ft 12 kts 114°
2026-04-30 21:56 54.38032 18.46610 459 ft 8 kts 189°
2026-04-30 21:57 54.38013 18.46596 459 ft 2 kts 201°
2026-04-30 21:57 54.37983 18.46583 459 ft 6 kts 188°
2026-04-30 21:57 54.37939 18.46617 459 ft 8 kts 124°
2026-04-30 21:57 54.37909 18.46726 459 ft 12 kts 113°
2026-04-30 21:58 54.37872 18.46876 459 ft 15 kts 112°
2026-04-30 21:58 54.37832 18.47041 459 ft 12 kts 112°
2026-04-30 21:58 54.37795 18.47193 459 ft 15 kts 112°
2026-04-30 21:58 54.37749 18.47379 460 ft 18 kts 114°
2026-04-30 21:59 54.37717 18.47503 461 ft 12 kts 113°
2026-04-30 21:59 54.37684 18.47639 463 ft 13 kts 110°
2026-04-30 21:59 54.37648 18.47786 467 ft 14 kts 113°
2026-04-30 22:00 54.37568 18.48108 474 ft 15 kts 113°
2026-04-30 22:00 54.37485 18.48439 477 ft 15 kts 114°
2026-04-30 22:00 54.37447 18.48594 486 ft 14 kts 120°
2026-04-30 22:01 54.37373 18.48638 485 ft 0 kts 199°
2026-04-30 22:05 54.37361 18.48630 490 ft 6 kts 201°
2026-04-30 22:05 54.37302 18.48554 483 ft 14 kts 244°
2026-04-30 22:05 54.37329 18.48359 484 ft 26 kts 292°
2026-04-30 22:06 54.37501 18.47662 467 ft 100 kts 294°
2026-04-30 22:06 54.38243 18.44636 1101 ft 146 kts 294°
2026-04-30 22:06 54.38628 18.43011 1725 ft 151 kts 295°
2026-04-30 22:07 54.39029 18.41287 2225 ft 164 kts 296°
2026-04-30 22:07 54.39480 18.39364 2646 ft 183 kts 296°
2026-04-30 22:07 54.40011 18.37247 3088 ft 205 kts 297°
2026-04-30 22:07 54.40623 18.34889 3709 ft 223 kts 297°
2026-04-30 22:08 54.41241 18.32443 4819 ft 223 kts 297°
2026-04-30 22:08 54.41852 18.29973 5904 ft 227 kts 297°
2026-04-30 22:08 54.42476 18.27439 6880 ft 234 kts 297°
2026-04-30 22:08 54.43094 18.24813 7832 ft 241 kts 290°
2026-04-30 22:09 54.43158 18.21868 8801 ft 257 kts 261°
2026-04-30 22:09 54.42356 18.19042 9698 ft 274 kts 232°
2026-04-30 22:09 54.40827 18.17009 10546 ft 287 kts 206°
2026-04-30 22:09 54.38911 18.15689 11060 ft 309 kts 197°
2026-04-30 22:10 54.36794 18.14440 11484 ft 334 kts 204°
2026-04-30 22:10 54.34837 18.12102 11860 ft 356 kts 227°
2026-04-30 22:10 54.33415 18.08536 12346 ft 368 kts 250°
2026-04-30 22:10 54.32602 18.04378 13208 ft 370 kts 258°
2026-04-30 22:11 54.31214 17.95736 14867 ft 383 kts 257°
2026-04-30 22:11 54.30407 17.91360 15646 ft 388 kts 255°
2026-04-30 22:11 54.29531 17.86939 16412 ft 394 kts 255°
2026-04-30 22:12 54.28641 17.82471 17180 ft 398 kts 258°
2026-04-30 22:12 54.27884 17.77884 17929 ft 403 kts 259°
2026-04-30 22:12 54.27120 17.73239 18670 ft 409 kts 259°
2026-04-30 22:12 54.26345 17.68539 19343 ft 412 kts 259°
2026-04-30 22:13 54.25562 17.63807 20046 ft 415 kts 259°
2026-04-30 22:13 54.24767 17.59021 20723 ft 419 kts 259°
2026-04-30 22:13 54.23966 17.54208 21391 ft 423 kts 259°
2026-04-30 22:13 54.23172 17.49338 22063 ft 425 kts 262°
2026-04-30 22:14 54.22680 17.44376 22730 ft 423 kts 270°
2026-04-30 22:14 54.22596 17.39360 23385 ft 421 kts 278°
2026-04-30 22:14 54.22791 17.34359 24022 ft 424 kts 280°
2026-04-30 22:14 54.22988 17.29316 24578 ft 427 kts 280°
2026-04-30 22:15 54.23176 17.24245 25139 ft 430 kts 279°
2026-04-30 22:15 54.23360 17.19123 25676 ft 433 kts 279°
2026-04-30 22:15 54.23541 17.13980 26205 ft 436 kts 279°
2026-04-30 22:15 54.23722 17.08791 26707 ft 439 kts 279°
2026-04-30 22:16 54.23901 17.03560 27209 ft 442 kts 279°
2026-04-30 22:16 54.24080 16.98299 27680 ft 445 kts 279°
2026-04-30 22:17 54.26489 16.83497 29035 ft 427 kts 309°
2026-04-30 22:17 54.28235 16.79409 29453 ft 426 kts 314°
2026-04-30 22:17 54.31822 16.71251 30293 ft 432 kts 313°
2026-04-30 22:18 54.33620 16.67130 30675 ft 435 kts 313°
2026-04-30 22:18 54.37256 16.58768 31391 ft 439 kts 313°
2026-04-30 22:19 54.40932 16.50280 32270 ft 439 kts 313°
2026-04-30 22:19 54.42722 16.46135 32749 ft 438 kts 313°
2026-04-30 22:19 54.46337 16.37748 33684 ft 436 kts 313°
2026-04-30 22:20 54.48139 16.33557 34136 ft 435 kts 313°
2026-04-30 22:20 54.51720 16.25213 34912 ft 433 kts 313°
2026-04-30 22:20 54.53503 16.21049 35270 ft 432 kts 312°
2026-04-30 22:21 54.55279 16.16893 35618 ft 431 kts 312°
2026-04-30 22:21 54.57053 16.12735 35957 ft 430 kts 312°
2026-04-30 22:21 54.58821 16.08585 36276 ft 430 kts 312°
2026-04-30 22:21 54.60590 16.04426 36586 ft 429 kts 312°
2026-04-30 22:22 54.62349 16.00280 36889 ft 429 kts 312°
2026-04-30 22:22 54.64110 15.96124 37204 ft 428 kts 312°
2026-04-30 22:22 54.65863 15.91982 37488 ft 428 kts 311°
2026-04-30 22:22 54.67619 15.87824 37771 ft 427 kts 311°
2026-04-30 22:23 54.69367 15.83677 38046 ft 427 kts 311°
2026-04-30 22:23 54.71113 15.79528 38307 ft 426 kts 311°
2026-04-30 22:23 54.74027 15.72586 38387 ft 425 kts 311°
2026-04-30 22:24 54.77471 15.64261 38389 ft 425 kts 311°
2026-04-30 22:24 54.80885 15.55970 38386 ft 426 kts 310°
2026-04-30 22:25 54.84327 15.47594 38387 ft 426 kts 310°
2026-04-30 22:25 54.87762 15.39210 38389 ft 426 kts 310°
2026-04-30 22:26 54.90670 15.30136 38383 ft 436 kts 296°
2026-04-30 22:26 54.91613 15.25135 38385 ft 441 kts 289°
2026-04-30 22:27 54.92481 15.14538 38385 ft 448 kts 280°
2026-04-30 22:27 54.93370 14.98364 38383 ft 448 kts 280°
2026-04-30 22:28 54.94227 14.82169 38383 ft 449 kts 280°
2026-04-30 22:29 54.95328 14.60526 38384 ft 449 kts 280°
2026-04-30 22:31 54.97163 14.22620 38403 ft 449 kts 279°
2026-04-30 22:32 54.98401 13.95548 38411 ft 448 kts 279°
2026-04-30 22:33 54.99574 13.68575 38417 ft 448 kts 279°
2026-04-30 22:35 55.00693 13.41458 38415 ft 448 kts 279°
2026-04-30 22:36 55.01745 13.14482 38418 ft 448 kts 278°
2026-04-30 22:37 55.02050 12.92735 38422 ft 453 kts 271°
2026-04-30 22:38 55.01436 12.70977 38423 ft 452 kts 272°
2026-04-30 22:39 55.00841 12.54555 38432 ft 453 kts 270°
2026-04-30 22:39 55.00684 12.38196 38428 ft 447 kts 281°
2026-04-30 22:40 55.02706 12.22524 38435 ft 440 kts 291°
2026-04-30 22:41 55.06927 11.96858 38444 ft 440 kts 290°
2026-04-30 22:43 55.11895 11.66073 38443 ft 440 kts 290°
2026-04-30 22:44 55.15168 11.45452 38440 ft 440 kts 290°
2026-04-30 22:45 55.20021 11.14406 38442 ft 441 kts 289°
2026-04-30 22:47 55.24799 10.83256 38448 ft 442 kts 289°
2026-04-30 22:48 55.27949 10.62391 38458 ft 443 kts 289°
2026-04-30 22:49 55.32604 10.31001 38460 ft 443 kts 288°
2026-04-30 22:51 55.37183 9.99514 38450 ft 443 kts 288°
2026-04-30 22:51 55.38691 9.89019 37950 ft 442 kts 288°
2026-04-30 22:52 55.39440 9.83787 37410 ft 444 kts 288°
2026-04-30 22:52 55.40946 9.73217 36017 ft 445 kts 288°
2026-04-30 22:53 55.42437 9.62681 34524 ft 448 kts 289°
2026-04-30 22:53 55.43939 9.51993 32863 ft 449 kts 288°
2026-04-30 22:53 55.44696 9.46573 32043 ft 450 kts 288°
2026-04-30 22:54 55.46164 9.36001 30818 ft 442 kts 288°
2026-04-30 22:55 55.48312 9.20374 28986 ft 427 kts 288°
2026-04-30 22:55 55.49673 9.10388 27847 ft 418 kts 288°
2026-04-30 22:56 55.51024 9.00443 27006 ft 427 kts 288°
2026-04-30 22:56 55.53094 8.85045 26239 ft 426 kts 287°
2026-04-30 22:57 55.54446 8.74883 25685 ft 425 kts 287°
2026-04-30 22:57 55.55795 8.64686 24454 ft 426 kts 287°
2026-04-30 22:58 55.57118 8.54597 23261 ft 416 kts 287°
2026-04-30 22:59 55.59581 8.40365 21510 ft 390 kts 308°
2026-04-30 22:59 55.65982 8.33671 19871 ft 352 kts